Location: Basse Occidentale du Courleau
(48.3833°N, 4.8333°W)
Time: 19:51:32
(UTC+00:00)

In-Cosmos 22 Rocket - Pass Details

Date: 05 July 2020
Orbit: 791 x 887 km, 81.2° (Epoch: 06 August)

Event Time Altitude Azimuth Distance (km) Brightness Sun altitude
Exits shadow 23:11:34 19° 205° (SSW) 1,818 5.5 -17.1°
Maximum altitude 23:15:24 65° 284° (WNW) 871 4.4 -17.3°
Drops below altitude 10° 23:20:43 10° 7° (N) 2,375 7.6 -17.5°
Sets 23:23:08 0° 10° (N) 3,316 8.5 -17.7°
